Time,TemperatureF,DewpointF,PressureIn,WindDirection,WindDirectionDegrees,WindSpeedMPH,WindSpeedGustMPH,Humidity,HourlyPrecipIn,Conditions,Clouds,dailyrainin,SoftwareType,DateUTC
2013-06-04 00:03:00,46.0,16.0,-100.00,NNE,15,0.0,2.0,30,-99.99,,,-99.99,,2013-06-04 04:03:00,
2013-06-04 00:13:00,46.0,16.0,-100.00,WNW,300,0.0,1.0,30,-99.99,,,-99.99,,2013-06-04 04:13:00,
2013-06-04 00:23:00,46.0,16.0,-100.00,North,5,1.0,2.0,30,-99.99,,,-99.99,,2013-06-04 04:23:00,
2013-06-04 00:33:00,41.0,12.0,-100.00,SE,135,0.0,1.0,30,-99.99,,,-99.99,,2013-06-04 04:33:00,
2013-06-04 00:42:00,41.0,12.0,-100.00,SE,135,0.0,1.0,30,-99.99,,,-99.99,,2013-06-04 04:42:00,
2013-06-04 00:53:00,41.0,12.0,-100.00,NW,315,1.0,2.0,30,-99.99,,,-99.99,,2013-06-04 04:53:00,
2013-06-04 01:02:00,41.0,12.0,-100.00,NW,305,1.0,2.0,30,-99.99,,,-99.99,,2013-06-04 05:02:00,
2013-06-04 01:12:00,41.0,12.0,-100.00,SW,225,1.0,2.0,30,-99.99,,,-99.99,,2013-06-04 05:12:00,
2013-06-04 01:22:00,41.0,12.0,-100.00,SE,125,0.0,2.0,30,-99.99,,,-99.99,,2013-06-04 05:22:00,
2013-06-04 01:32:00,38.0,9.0,-100.00,SSW,195,2.0,5.0,30,-99.99,,,-99.99,,2013-06-04 05:32:00,
2013-06-04 01:42:00,38.0,9.0,-100.00,SSW,195,2.0,5.0,30,-99.99,,,-99.99,,2013-06-04 05:42:00,
2013-06-04 01:52:00,38.0,9.0,-100.00,NNE,15,0.0,2.0,30,-99.99,,,-99.99,,2013-06-04 05:52:00,
2013-06-04 02:02:00,38.0,9.0,-100.00,NNE,15,0.0,2.0,30,-99.99,,,-99.99,,2013-06-04 06:02:00,
2013-06-04 02:12:00,38.0,9.0,-100.00,North,355,1.0,2.0,30,-99.99,,,-99.99,,2013-06-04 06:12:00,
2013-06-04 02:22:00,38.0,9.0,-100.00,SE,130,0.0,1.0,30,-99.99,,,-99.99,,2013-06-04 06:22:00,
2013-06-04 02:32:00,37.0,30.0,-100.00,NNE,20,1.0,-999.0,76,-99.99,,,-99.99,,2013-06-04 06:32:00,
2013-06-04 02:42:00,37.0,30.0,-100.00,NNE,20,1.0,-999.0,76,-99.99,,,-99.99,,2013-06-04 06:42:00,
2013-06-04 02:52:00,37.0,30.0,-100.00,North,10,2.0,-999.0,76,-99.99,,,-99.99,,2013-06-04 06:52:00,
2013-06-04 03:02:00,37.0,30.0,-100.00,NNE,25,2.0,-999.0,76,-99.99,,,-99.99,,2013-06-04 07:02:00,
2013-06-04 03:12:00,37.0,30.0,-100.00,WNW,285,0.0,-999.0,76,-99.99,,,-99.99,,2013-06-04 07:12:00,
2013-06-04 03:22:00,37.0,30.0,-100.00,NW,310,3.0,-999.0,76,-99.99,,,-99.99,,2013-06-04 07:22:00,
2013-06-04 03:32:00,36.0,30.0,-100.00,NW,305,2.0,-999.0,79,-99.99,,,-99.99,,2013-06-04 07:32:00,
2013-06-04 03:42:00,36.0,30.0,-100.00,West,280,2.0,-999.0,79,-99.99,,,-99.99,,2013-06-04 07:42:00,
2013-06-04 03:52:00,36.0,30.0,-100.00,WNW,295,1.0,-999.0,79,-99.99,,,-99.99,,2013-06-04 07:52:00,
2013-06-04 04:02:00,36.0,30.0,-100.00,WNW,290,0.0,-999.0,79,-99.99,,,-99.99,,2013-06-04 08:02:00,
2013-06-04 04:12:00,36.0,30.0,-100.00,SE,125,0.0,-999.0,79,-99.99,,,-99.99,,2013-06-04 08:12:00,
2013-06-04 04:22:00,36.0,30.0,-100.00,ESE,110,1.0,-999.0,79,-99.99,,,-99.99,,2013-06-04 08:22:00,
2013-06-04 04:52:00,35.0,29.0,-100.00,NNW,330,0.0,-999.0,79,-99.99,,,-99.99,,2013-06-04 08:52:00,
2013-06-04 05:02:00,35.0,29.0,-100.00,NNW,330,0.0,-999.0,79,-99.99,,,-99.99,,2013-06-04 09:02:00,
2013-06-04 05:12:00,35.0,29.0,-100.00,East,85,1.0,-999.0,79,-99.99,,,-99.99,,2013-06-04 09:12:00,
2013-06-04 05:22:00,35.0,30.0,-100.00,South,190,0.0,-999.0,82,-99.99,,,-99.99,,2013-06-04 09:22:00,
2013-06-04 05:33:00,35.0,30.0,-100.00,WSW,255,0.0,1.0,82,-99.99,,,-99.99,,2013-06-04 09:33:00,
2013-06-04 05:43:00,35.0,30.0,-100.00,North,0,2.0,2.0,82,-99.99,,,-99.99,,2013-06-04 09:43:00,
2013-06-04 05:53:00,35.0,30.0,-100.00,North,0,2.0,2.0,82,-99.99,,,-99.99,,2013-06-04 09:53:00,
2013-06-04 06:02:00,35.0,30.0,-100.00,NNE,15,1.0,2.0,82,-99.99,,,-99.99,,2013-06-04 10:02:00,
2013-06-04 06:12:00,35.0,30.0,-100.00,NNW,330,1.0,2.0,82,-99.99,,,-99.99,,2013-06-04 10:12:00,
2013-06-04 06:23:00,35.0,30.0,-100.00,NW,315,2.0,2.0,82,-99.99,,,-99.99,,2013-06-04 10:23:00,
2013-06-04 06:33:00,36.0,29.0,-100.00,NNW,345,2.0,2.0,76,-99.99,,,-99.99,,2013-06-04 10:33:00,
2013-06-04 06:42:00,36.0,29.0,-100.00,NNW,345,2.0,2.0,76,-99.99,,,-99.99,,2013-06-04 10:42:00,
2013-06-04 06:52:00,36.0,29.0,-100.00,WNW,300,0.0,2.0,76,-99.99,,,-99.99,,2013-06-04 10:52:00,
2013-06-04 07:02:00,36.0,29.0,-100.00,WNW,300,0.0,2.0,76,-99.99,,,-99.99,,2013-06-04 11:02:00,
2013-06-04 07:12:00,36.0,29.0,-100.00,NNW,330,2.0,2.0,76,-99.99,,,-99.99,,2013-06-04 11:12:00,
2013-06-04 07:22:00,36.0,29.0,-100.00,NNW,330,2.0,2.0,76,-99.99,,,-99.99,,2013-06-04 11:22:00,
2013-06-04 07:32:00,38.0,31.0,-100.00,NNE,25,0.0,2.0,76,-99.99,,,-99.99,,2013-06-04 11:32:00,
2013-06-04 07:42:00,38.0,30.0,-100.00,NE,35,2.0,2.0,73,-99.99,,,-99.99,,2013-06-04 11:42:00,
2013-06-04 07:52:00,38.0,30.0,-100.00,East,100,0.0,1.0,73,-99.99,,,-99.99,,2013-06-04 11:52:00,
2013-06-04 08:02:00,38.0,30.0,-100.00,East,100,0.0,1.0,73,-99.99,,,-99.99,,2013-06-04 12:02:00,
2013-06-04 08:12:00,38.0,30.0,-100.00,West,270,1.0,2.0,73,-99.99,,,-99.99,,2013-06-04 12:12:00,
2013-06-04 08:22:00,38.0,30.0,-100.00,West,270,2.0,3.0,73,-99.99,,,-99.99,,2013-06-04 12:22:00,
2013-06-04 08:32:00,45.0,35.0,-100.00,West,260,1.0,3.0,68,-99.99,,,-99.99,,2013-06-04 12:32:00,
2013-06-04 08:42:00,45.0,35.0,-100.00,SSW,210,1.0,3.0,68,-99.99,,,-99.99,,2013-06-04 12:42:00,
2013-06-04 08:52:00,45.0,35.0,-100.00,West,275,2.0,3.0,68,-99.99,,,-99.99,,2013-06-04 12:52:00,
2013-06-04 09:02:00,45.0,35.0,-100.00,West,275,2.0,3.0,68,-99.99,,,-99.99,,2013-06-04 13:02:00,
2013-06-04 09:12:00,45.0,35.0,-100.00,WNW,290,2.0,3.0,68,-99.99,,,-99.99,,2013-06-04 13:12:00,
2013-06-04 09:22:00,45.0,35.0,-100.00,WNW,290,2.0,5.0,68,-99.99,,,-99.99,,2013-06-04 13:22:00,
2013-06-04 09:32:00,51.0,33.0,-100.00,WNW,285,2.0,5.0,50,-99.99,,,-99.99,,2013-06-04 13:32:00,
2013-06-04 09:42:00,50.0,33.0,-100.00,WSW,255,5.0,6.0,52,-99.99,,,-99.99,,2013-06-04 13:42:00,
2013-06-04 09:52:00,50.0,33.0,-100.00,WNW,300,3.0,6.0,52,-99.99,,,-99.99,,2013-06-04 13:52:00,
2013-06-04 10:02:00,50.0,33.0,-100.00,West,275,2.0,7.0,52,-99.99,,,-99.99,,2013-06-04 14:02:00,
2013-06-04 10:12:00,50.0,33.0,-100.00,NW,320,3.0,5.0,52,-99.99,,,-99.99,,2013-06-04 14:12:00,
2013-06-04 10:22:00,50.0,33.0,-100.00,ESE,110,1.0,2.0,52,-99.99,,,-99.99,,2013-06-04 14:22:00,
2013-06-04 10:32:00,55.0,33.0,-100.00,East,85,0.0,5.0,43,-99.99,,,-99.99,,2013-06-04 14:32:00,
2013-06-04 10:52:00,55.0,36.0,-100.00,ENE,60,1.0,6.0,49,-99.99,,,-99.99,,2013-06-04 14:52:00,
2013-06-04 11:02:00,55.0,36.0,-100.00,ENE,60,1.0,6.0,49,-99.99,,,-99.99,,2013-06-04 15:02:00,
2013-06-04 11:12:00,55.0,36.0,-100.00,SE,125,5.0,7.0,49,-99.99,,,-99.99,,2013-06-04 15:12:00,
2013-06-04 11:22:00,55.0,29.0,-100.00,ESE,115,5.0,10.0,37,-99.99,,,-99.99,,2013-06-04 15:22:00,
2013-06-04 11:33:00,58.0,28.0,-100.00,ESE,105,6.0,8.0,32,-99.99,,,-99.99,,2013-06-04 15:33:00,
2013-06-04 11:42:00,58.0,28.0,-100.00,ESE,105,6.0,8.0,32,-99.99,,,-99.99,,2013-06-04 15:42:00,
2013-06-04 11:53:00,58.0,28.0,-100.00,ENE,60,1.0,7.0,32,-99.99,,,-99.99,,2013-06-04 15:53:00,
2013-06-04 12:03:00,58.0,28.0,-100.00,ESE,115,3.0,5.0,32,-99.99,,,-99.99,,2013-06-04 16:03:00,
2013-06-04 12:12:00,58.0,28.0,-100.00,SE,145,3.0,5.0,32,-99.99,,,-99.99,,2013-06-04 16:12:00,
2013-06-04 12:22:00,58.0,30.0,-100.00,South,180,1.0,5.0,35,-99.99,,,-99.99,,2013-06-04 16:22:00,
2013-06-04 12:33:00,60.0,31.0,-100.00,WSW,250,2.0,5.0,33,-99.99,,,-99.99,,2013-06-04 16:33:00,
2013-06-04 12:42:00,60.0,31.0,-100.00,West,275,2.0,3.0,33,-99.99,,,-99.99,,2013-06-04 16:42:00,
2013-06-04 12:52:00,60.0,31.0,-100.00,SE,145,3.0,7.0,33,-99.99,,,-99.99,,2013-06-04 16:52:00,
2013-06-04 13:03:00,60.0,31.0,-100.00,SE,145,3.0,7.0,33,-99.99,,,-99.99,,2013-06-04 17:03:00,
2013-06-04 13:42:00,62.0,33.0,-100.00,South,175,7.0,9.0,34,-99.99,,,-99.99,,2013-06-04 17:42:00,
2013-06-04 14:12:00,62.0,34.0,-100.00,WSW,250,1.0,5.0,35,-99.99,,,-99.99,,2013-06-04 18:12:00,
2013-06-04 14:22:00,62.0,34.0,-100.00,WSW,245,3.0,9.0,35,-99.99,,,-99.99,,2013-06-04 18:22:00,
2013-06-04 14:32:00,63.0,35.0,-100.00,North,6,2.0,10.0,35,-99.99,,,-99.99,,2013-06-04 18:32:00,
2013-06-04 14:42:00,63.0,35.0,-100.00,ESE,120,3.0,9.0,35,-99.99,,,-99.99,,2013-06-04 18:42:00,
2013-06-04 15:42:00,63.0,33.0,-100.00,SSE,160,6.0,9.0,33,-99.99,,,-99.99,,2013-06-04 19:42:00,
2013-06-04 15:52:00,63.0,33.0,-100.00,SSE,160,6.0,10.0,33,-99.99,,,-99.99,,2013-06-04 19:52:00,
2013-06-04 16:03:00,63.0,33.0,-100.00,SSE,160,6.0,13.0,33,-99.99,,,-99.99,,2013-06-04 20:03:00,
2013-06-04 16:12:00,63.0,33.0,-100.00,SSE,160,6.0,10.0,33,-99.99,,,-99.99,,2013-06-04 20:12:00,
2013-06-04 16:22:00,63.0,33.0,-100.00,SSE,160,6.0,10.0,33,-99.99,,,-99.99,,2013-06-04 20:22:00,
2013-06-04 16:32:00,63.0,33.0,-100.00,East,90,3.0,12.0,33,-99.99,,,-99.99,,2013-06-04 20:32:00,
2013-06-04 16:42:00,63.0,33.0,-100.00,East,90,3.0,12.0,33,-99.99,,,-99.99,,2013-06-04 20:42:00,
2013-06-04 16:52:00,63.0,33.0,-100.00,WSW,255,6.0,13.0,33,-99.99,,,-99.99,,2013-06-04 20:52:00,
2013-06-04 17:42:00,63.0,35.0,-100.00,South,190,2.0,9.0,35,-99.99,,,-99.99,,2013-06-04 21:42:00,
2013-06-04 18:22:00,63.0,36.0,-100.00,SSW,200,7.0,10.0,36,-99.99,,,-99.99,,2013-06-04 22:22:00,
2013-06-04 18:32:00,61.0,34.0,-100.00,South,185,7.0,9.0,36,-99.99,,,-99.99,,2013-06-04 22:32:00,
2013-06-04 18:42:00,61.0,34.0,-100.00,South,185,7.0,9.0,36,-99.99,,,-99.99,,2013-06-04 22:42:00,
2013-06-04 18:52:00,61.0,34.0,-100.00,SSW,205,5.0,9.0,36,-99.99,,,-99.99,,2013-06-04 22:52:00,
2013-06-04 19:12:00,61.0,34.0,-100.00,SSE,160,6.0,8.0,36,-99.99,,,-99.99,,2013-06-04 23:12:00,
2013-06-04 19:22:00,61.0,34.0,-100.00,SSE,150,6.0,9.0,36,-99.99,,,-99.99,,2013-06-04 23:22:00,
2013-06-04 19:32:00,58.0,31.0,-100.00,South,175,5.0,8.0,36,-99.99,,,-99.99,,2013-06-04 23:32:00,
2013-06-04 19:42:00,58.0,31.0,-100.00,SSE,165,7.0,8.0,36,-99.99,,,-99.99,,2013-06-04 23:42:00,
2013-06-04 19:52:00,58.0,31.0,-100.00,SW,230,6.0,10.0,36,-99.99,,,-99.99,,2013-06-04 23:52:00,
2013-06-04 20:02:00,58.0,31.0,-100.00,SSW,200,2.0,8.0,36,-99.99,,,-99.99,,2013-06-05 00:02:00,
2013-06-04 20:12:00,58.0,31.0,-100.00,SE,145,2.0,6.0,36,-99.99,,,-99.99,,2013-06-05 00:12:00,
2013-06-04 20:22:00,58.0,31.0,-100.00,ENE,60,5.0,6.0,36,-99.99,,,-99.99,,2013-06-05 00:22:00,
2013-06-04 20:42:00,56.0,30.0,-100.00,ESE,105,5.0,7.0,37,-99.99,,,-99.99,,2013-06-05 00:42:00,
2013-06-04 20:52:00,56.0,30.0,-100.00,WNW,295,1.0,2.0,37,-99.99,,,-99.99,,2013-06-05 00:52:00,
2013-06-04 21:02:00,56.0,30.0,-100.00,WNW,295,1.0,2.0,37,-99.99,,,-99.99,,2013-06-05 01:02:00,
2013-06-04 21:12:00,56.0,30.0,-100.00,NNW,340,3.0,5.0,37,-99.99,,,-99.99,,2013-06-05 01:12:00,
2013-06-04 21:22:00,56.0,30.0,-100.00,SW,225,5.0,6.0,37,-99.99,,,-99.99,,2013-06-05 01:22:00,
2013-06-04 21:32:00,53.0,27.0,-100.00,SSW,205,3.0,6.0,37,-99.99,,,-99.99,,2013-06-05 01:32:00,
2013-06-04 21:42:00,53.0,27.0,-100.00,SSW,205,3.0,6.0,37,-99.99,,,-99.99,,2013-06-05 01:42:00,
2013-06-04 21:52:00,53.0,27.0,-100.00,SSW,210,2.0,5.0,37,-99.99,,,-99.99,,2013-06-05 01:52:00,
2013-06-04 22:02:00,53.0,27.0,-100.00,SSW,210,2.0,5.0,37,-99.99,,,-99.99,,2013-06-05 02:02:00,
2013-06-04 22:12:00,53.0,27.0,-100.00,SW,230,2.0,5.0,37,-99.99,,,-99.99,,2013-06-05 02:12:00,
2013-06-04 22:22:00,53.0,27.0,-100.00,NNE,20,1.0,2.0,37,-99.99,,,-99.99,,2013-06-05 02:22:00,
2013-06-04 22:32:00,50.0,25.0,-100.00,SSW,200,0.0,1.0,37,-99.99,,,-99.99,,2013-06-05 02:32:00,
2013-06-04 22:42:00,50.0,25.0,-100.00,SSW,200,0.0,1.0,37,-99.99,,,-99.99,,2013-06-05 02:42:00,
2013-06-04 22:52:00,50.0,25.0,-100.00,North,5,1.0,3.0,37,-99.99,,,-99.99,,2013-06-05 02:52:00,
2013-06-04 23:02:00,50.0,25.0,-100.00,North,5,1.0,3.0,37,-99.99,,,-99.99,,2013-06-05 03:02:00,
2013-06-04 23:12:00,50.0,25.0,-100.00,North,5,1.0,3.0,37,-99.99,,,-99.99,,2013-06-05 03:12:00,
2013-06-04 23:22:00,50.0,25.0,-100.00,NNE,25,1.0,2.0,37,-99.99,,,-99.99,,2013-06-05 03:22:00,
2013-06-04 23:33:00,48.0,23.0,-100.00,NE,40,1.0,2.0,37,-99.99,,,-99.99,,2013-06-05 03:33:00,
2013-06-04 23:43:00,48.0,23.0,-100.00,North,5,2.0,3.0,37,-99.99,,,-99.99,,2013-06-05 03:43:00,
2013-06-04 23:53:00,48.0,23.0,-100.00,ENE,75,0.0,3.0,37,-99.99,,,-99.99,,2013-06-05 03:53:00,